Temperature
20 21 22 22 23 23 23 23 24 24 25 25 25 25 25 25 26 26 26 25 25 24 23 21 21 20 20 19 20 20 20 19 19 18 18 18 18 18 18 18 18 18 18 17
21 21 22 23 22 22 22 23 23 24 24 24 24 24 24 24 23 23 23 23 23 23 21 21 20 20 19 19 19 20 20 20 20 19 19 18 18 18 18 18 18 18 18 17
21 22 22 22 21 21 22 23 23 24 24 24 24 24 23 23 22 21 21 21 21 20 20 19 19 19 19 19 19 19 19 20 20 19 19 18 18 18 17 18 17 18 18 17
22 22 22 21 22 22 22 23 23 23 24 25 25 24 23 22 21 20 19 19 18 18 18 18 18 18 18 18 18 18 19 19 19 19 18 18 18 18 18 17 17 17 17 17
22 22 22 21 22 22 23 24 23 23 24 24 24 25 22 22 20 19 18 17 16 16 16 16 16 16 17 17 17 18 18 18 18 19 18 18 18 17 17 17 17 17 16 16
22 23 22 22 23 23 23 23 23 23 24 23 24 24 21 21 19 18 16 15 14 14 14 15 15 15 16 16 17 17 18 18 18 18 18 18 17 16 16 16 16 16 15 15
21 22 23 23 22 23 23 22 22 22 23 23 24 23 19 18 18 17 15 14 13 13 13 14 14 14 15 15 16 16 17 17 17 17 17 17 17 16 16 15 15 15 14 14
21 21 22 22 22 23 23 23 23 23 23 23 23 21 18 17 16 15 14 13 13 12 12 13 13 13 13 14 14 15 15 15 16 16 16 16 16 15 15 15 14 14 14 13
21 21 22 22 23 23 23 23 25 24 24 23 22 20 17 17 16 15 14 13 12 12 12 12 12 12 12 13 13 14 14 14 14 14 14 14 14 14 14 13 13 13 13 12
21 20 22 22 23 23 24 24 23 23 22 22 21 21 19 17 16 16 14 13 11 11 11 11 11 11 12 12 12 13 13 13 13 13 13 13 13 13 13 12 12 12 11 11
20 20 21 22 22 22 23 23 23 24 24 23 21 21 20 18 17 15 14 12 11 11 11 10 10 10 11 11 11 11 11 12 12 12 12 12 11 11 11 11 10 10 9 9
20 20 21 21 22 22 22 23 23 22 22 23 23 19 18 18 16 14 12 11 11 10 10 10 10 10 10 10 10 10 10 10 10 10 10 10 10 9 9 9 8 8 7 7
20 20 20 20 21 22 22 22 22 23 23 23 22 18 17 16 14 13 11 10 10 9 9 9 9 9 9 9 9 9 9 9 9 9 9 8 8 8 7 7 7 6 6 6
19 20 20 19 20 21 21 21 22 22 23 22 22 18 16 14 13 12 11 10 9 9 9 8 8 8 8 8 8 8 8 8 8 8 7 7 7 7 6 6 6 6 6 6
20 20 20 20 20 20 20 20 21 21 21 21 20 18 16 14 13 11 10 10 9 8 8 8 8 7 7 7 7 7 7 7 7 7 7 6 6 6 6 5 5 5 5 5
19 19 19 19 20 20 19 19 19 19 19 19 18 15 14 13 11 10 10 9 8 8 7 7 7 7 7 7 6 6 6 6 6 6 6 5 5 5 5 5 4 4 4 4
20 19 19 19 19 19 18 17 18 17 17 17 16 14 13 12 11 10 9 9 8 7 7 7 7 6 6 6 6 6 6 6 6 5 5 5 5 4 4 4 4 3 3 3
19 19 19 19 19 17 16 18 17 17 16 16 15 13 12 10 9 9 8 8 7 7 7 6 6 6 6 6 6 6 5 5 5 5 4 4 4 4 3 3 3 3 3 3
19 19 19 19 19 17 17 17 17 16 14 14 13 11 10 9 8 8 7 7 7 7 6 6 6 6 6 6 5 5 5 5 5 4 4 4 4 4 3 3 3 3 3 3
19 19 19 19 18 17 16 17 16 16 14 13 12 11 10 10 10 8 7 7 6 6 6 6 6 6 5 5 5 5 5 5 4 4 4 4 4 4 3 3 3 3 3 3
19 19 19 18 18 17 16 16 16 15 14 13 12 11 11 11 10 7 7 6 6 6 6 6 6 5 5 5 5 5 5 4 4 4 4 4 4 3 3 3 3 3 3 3
19 19 18 18 17 16 15 16 16 14 13 12 11 10 10 8 7 7 6 6 6 6 6 5 5 5 5 5 5 5 4 4 4 4 4 4 4 4 4 3 3 3 3 4
18 18 18 17 16 14 13 14 13 13 12 11 11 10 8 7 7 6 6 6 6 6 5 5 5 5 5 5 5 5 4 4 4 4 4 4 4 4 4 4 4 4 4 4
17 17 17 16 15 14 13 13 12 12 12 11 10 9 8 7 6 6 6 6 5 5 5 5 5 5 5 5 5 4 4 4 4 4 4 4 4 4 4 4 4 4 4 4
18 17 17 16 15 14 13 12 12 11 11 10 9 9 8 7 7 6 6 6 6 6 5 5 5 5 5 5 5 5 4 4 4 4 4 5 5 5 4 4 4 3 3 3
18 18 17 17 15 15 13 12 11 10 10 9 8 8 8 7 7 7 6 6 6 6 6 5 5 5 5 5 5 5 5 5 5 5 5 5 5 5 4 4 3 3 3 2
Wind_Speed
6 9 10 8 10 7 4 5 5 4 3 4 6 4 3 4 2 3 4 6 7 7 7 10 11 12 13 13 14 15 16 16 14 12 12 12 12 10 10 9 10 11 10 11
8 11 8 6 6 8 9 9 7 5 4 3 5 5 6 7 7 7 5 4 4 5 5 6 8 10 11 12 13 14 15 15 16 13 12 10 10 9 8 7 8 9 9 9
12 4 3 7 9 10 10 10 7 5 4 6 7 6 6 7 9 10 9 8 7 6 4 4 4 5 7 8 10 10 12 13 15 13 10 8 7 7 7 8 7 7 7 6
9 7 7 10 10 10 10 9 9 7 9 9 10 8 7 7 8 10 10 10 10 9 7 5 3 2 2 4 5 7 8 10 11 12 11 12 11 10 8 6 5 5 4 4
7 6 9 12 11 11 8 5 8 8 8 7 10 7 8 7 7 9 10 11 11 10 9 9 7 5 3 1 1 3 5 6 8 10 12 12 10 8 5 5 6 6 5 5
9 6 7 8 8 9 7 6 7 8 10 11 8 8 6 4 6 8 10 10 11 11 11 10 10 10 8 6 4 3 3 2 3 6 8 9 9 7 7 8 7 6 5 5
8 10 9 8 8 9 10 10 9 10 10 8 6 5 6 8 9 10 10 10 10 11 11 12 12 12 11 10 9 7 6 4 3 3 2 3 4 5 6 6 6 6 5 5
5 6 7 8 10 8 12 13 9 7 10 8 8 5 8 10 11 11 12 11 11 12 12 12 13 13 13 13 12 10 9 9 7 6 6 5 6 5 5 6 7 7 6 7
3 0 4 4 7 7 9 12 7 5 4 6 7 7 7 10 11 12 12 12 11 11 12 13 13 13 13 14 13 12 12 12 12 11 11 11 10 10 10 10 10 9 9 9
5 4 2 4 6 6 6 6 6 8 7 7 8 9 9 13 12 11 11 11 10 11 12 12 13 13 13 13 14 15 15 15 15 14 14 13 14 14 14 13 14 14 14 13
4 4 3 5 5 6 7 7 6 7 6 6 7 5 5 11 12 12 12 11 11 11 11 11 12 13 14 15 16 16 16 17 16 16 16 17 16 16 16 15 16 15 15 14
2 4 3 3 2 1 3 3 6 7 6 6 3 6 6 11 13 13 13 12 12 12 12 12 13 14 15 16 16 16 16 17 17 17 17 17 17 17 17 16 16 15 16 15
3 3 4 6 6 4 2 1 3 5 5 7 7 7 9 13 14 13 12 12 12 12 12 13 14 14 15 15 16 16 16 16 16 17 17 17 17 16 16 15 15 14 14 14
3 2 3 1 3 2 2 1 1 6 8 7 3 10 11 12 13 12 12 13 12 12 12 13 13 14 14 14 14 15 15 15 16 16 17 16 15 15 14 14 14 13 13 13
2 1 5 7 6 5 6 5 4 3 5 4 4 9 10 11 12 12 12 13 13 13 13 13 12 12 13 13 13 13 14 14 14 15 16 15 14 13 13 13 12 12 11 11
1 2 5 6 6 7 9 8 6 6 5 5 8 8 9 12 12 12 12 13 13 13 13 13 12 12 12 12 12 12 13 13 13 14 14 13 13 13 12 11 10 10 10 9
1 2 2 3 3 4 4 7 6 5 5 3 3 6 10 11 11 10 11 12 13 13 12 12 12 11 11 11 11 11 11 12 12 13 12 12 12 11 10 10 9 9 9 8
0 1 2 2 4 2 5 4 4 6 7 7 10 11 10 11 11 10 10 13 13 12 12 11 11 11 10 10 10 11 11 11 11 11 11 10 10 10 9 9 9 8 7 7
2 2 2 2 2 4 5 2 2 1 4 7 11 13 13 14 14 10 10 12 13 12 11 10 10 10 10 10 10 11 11 10 10 10 10 9 9 9 8 8 7 6 5 5
2 1 2 1 2 0 4 3 1 1 4 7 11 12 12 10 7 6 10 12 12 12 10 10 10 10 10 9 9 10 10 10 10 9 8 8 8 8 8 7 6 5 4 4
0 1 1 1 0 4 5 2 3 2 4 10 10 11 9 5 8 12 13 12 11 11 11 10 10 9 9 9 9 10 10 9 8 8 8 8 8 7 6 5 4 3 3 3
2 1 1 1 0 3 4 0 2 5 9 10 10 11 12 15 16 15 13 12 11 11 10 10 9 9 8 8 9 9 9 8 7 7 7 6 5 4 4 3 2 2 4 3
1 4 3 4 5 6 5 6 7 8 10 10 11 14 16 16 15 14 13 12 11 11 10 9 10 10 8 7 7 9 8 7 6 6 5 4 3 2 2 2 2 3 3 5
4 2 4 5 7 8 8 8 8 9 10 11 13 15 16 16 15 14 12 11 11 10 10 9 10 10 8 7 7 7 6 5 4 4 3 2 1 0 1 2 3 4 5 6
5 5 4 6 9 9 8 8 10 11 13 14 14 14 15 17 16 14 12 11 11 10 9 8 8 9 9 7 6 5 5 3 3 2 1 0 0 1 2 2 4 5 6 6
5 4 4 4 10 7 10 10 12 13 14 15 15 15 14 15 15 14 12 11 11 10 9 9 9 8 7 6 5 4 3 2 1 1 1 1 1 1 2 1 3 7 5 5
Wind_Direction
201 229 227 219 225 254 244 232 208 184 167 215 191 162 87 61 103 141 160 163 166 173 168 174 183 188 190 191 194 201 205 203 204 207 210 211 215 216 216 217 215 213 214 214
215 233 241 236 226 234 233 232 218 196 165 220 168 134 91 65 62 53 58 83 111 128 133 153 176 187 192 194 198 200 203 202 203 207 209 213 217 218 215 210 203 204 208 211
242 254 207 221 214 221 226 236 227 214 206 201 188 164 124 89 72 63 59 60 64 68 83 107 139 171 189 197 204 206 205 204 204 203 201 204 208 214 209 204 199 195 193 198
248 244 224 229 224 226 228 226 240 234 232 197 212 191 137 117 85 67 59 58 59 59 59 62 78 118 174 201 209 209 206 205 202 199 202 201 207 212 211 201 186 166 157 168
232 223 225 231 231 225 239 226 231 230 233 227 213 218 141 138 102 76 63 59 58 56 54 53 49 50 49 56 179 191 191 200 201 201 204 207 217 220 197 173 158 140 130 128
257 234 244 246 236 227 231 221 219 229 224 218 209 217 145 119 105 96 77 65 60 57 55 51 48 46 46 45 55 79 109 125 184 198 207 211 218 207 174 169 158 140 119 103
230 224 221 232 224 203 216 217 204 202 209 201 174 195 110 92 89 96 90 77 65 57 53 47 43 43 43 41 41 51 71 74 76 107 144 178 188 179 169 161 146 127 114 103
242 211 200 213 228 209 208 224 231 218 201 173 172 156 115 107 100 96 91 83 70 60 56 50 45 44 43 43 43 48 57 59 59 67 75 74 88 100 102 104 105 101 97 92
304 159 148 200 224 235 204 224 248 260 219 189 149 124 126 131 117 106 97 86 74 65 60 56 52 48 46 47 48 51 59 60 58 61 66 66 68 78 84 84 86 86 84 83
307 282 165 171 203 219 255 224 216 234 216 202 168 171 163 157 134 117 104 93 83 72 64 59 56 55 53 52 53 54 57 60 59 61 65 69 69 73 77 79 79 80 78 78
287 269 189 189 211 199 202 207 228 237 259 237 188 148 119 148 136 124 108 97 88 79 70 65 62 61 61 58 58 58 59 61 61 63 67 69 70 71 73 75 75 77 76 76
291 274 196 149 112 298 239 241 231 237 222 256 250 108 92 124 122 116 107 97 88 81 76 72 69 65 62 61 60 61 62 64 66 68 70 71 72 73 74 74 75 77 78 77
309 263 203 167 167 165 168 219 255 263 252 242 242 129 108 113 110 107 106 100 93 86 79 74 71 67 64 64 65 65 67 70 72 73 74 73 73 73 75 76 76 77 79 78
288 311 331 70 87 90 120 75 278 262 251 244 227 135 135 125 118 112 108 104 97 91 86 80 77 74 71 69 69 70 69 72 76 78 78 76 76 76 77 77 78 78 79 79
284 61 78 75 84 87 75 58 41 12 342 307 119 135 137 131 122 118 114 110 104 98 92 88 85 83 80 78 77 77 77 77 79 81 81 81 82 81 80 79 80 81 82 84
28 129 123 110 109 102 77 57 54 45 36 80 110 98 105 114 116 118 116 114 108 103 100 95 90 86 84 84 84 83 84 84 84 85 86 87 87 86 86 87 89 90 90 90
124 189 219 157 163 191 81 39 47 68 54 63 92 111 119 114 116 120 121 118 113 110 106 101 96 92 90 89 90 90 90 90 89 91 92 93 94 95 97 100 100 99 97 93
99 252 259 187 205 219 91 70 61 78 60 63 93 107 107 104 96 95 109 116 115 113 109 105 103 99 95 94 94 94 93 93 93 93 94 96 98 100 101 101 97 95 91 87
11 297 285 259 194 123 134 105 3 24 83 90 108 109 111 114 101 86 95 107 111 111 109 106 106 105 104 102 105 104 100 99 97 96 97 99 102 103 102 98 95 90 85 79
87 291 273 273 270 131 94 61 353 214 135 129 130 133 139 144 127 115 111 110 109 109 109 110 110 108 106 107 110 108 105 102 100 101 102 103 102 98 95 91 86 82 73 59
197 68 19 352 74 92 56 9 249 266 113 140 145 147 148 126 110 123 120 113 111 110 111 112 110 107 108 113 112 109 106 102 104 108 107 102 100 99 95 88 73 55 38 30
339 1 50 306 274 90 47 32 26 82 115 132 134 130 116 110 115 120 120 119 119 117 117 117 114 110 110 118 117 110 105 108 111 109 108 106 102 96 93 79 53 17 350 341
23 20 36 33 64 87 76 80 93 118 124 128 129 127 127 126 126 125 124 125 126 126 125 126 122 119 120 122 118 114 115 118 114 109 108 111 111 93 53 7 354 341 341 347
130 124 123 116 115 113 107 107 112 118 122 126 129 132 133 131 131 130 130 131 131 129 129 130 129 125 121 119 115 116 119 121 120 113 118 131 141 143 39 340 348 356 1 0
137 165 151 131 135 133 126 122 122 119 120 122 126 130 133 134 136 135 134 132 130 129 129 131 128 126 125 125 122 119 120 131 127 125 138 185 328 22 0 14 21 7 35 29
171 178 193 160 162 160 144 137 134 131 131 131 131 131 135 136 135 134 131 129 129 129 130 128 127 126 127 130 126 121 124 138 157 174 213 283 309 349 332 34 109 70 51 80
Height
1502 1499 1493 1489 1490 1487 1488 1487 1486 1483 1482 1482 1481 1481 1482 1483 1483 1484 1486 1489 1492 1497 1501 1505 1508 1512 1515 1518 1520 1524 1528 1531 1534 1537 1539 1542 1545 1547 1548 1550 1551 1553 1554 1555
1499 1494 1489 1489 1491 1492 1491 1490 1486 1483 1482 1482 1482 1483 1485 1487 1488 1490 1490 1492 1494 1498 1501 1504 1507 1510 1513 1515 1518 1521 1524 1527 1530 1533 1535 1538 1541 1543 1544 1545 1546 1548 1550 1551
1492 1487 1489 1491 1492 1493 1490 1488 1484 1483 1481 1481 1482 1486 1486 1490 1492 1494 1495 1496 1497 1499 1502 1504 1506 1508 1511 1513 1515 1518 1520 1523 1526 1529 1531 1534 1536 1538 1540 1541 1542 1543 1545 1547
1488 1486 1490 1490 1489 1488 1487 1483 1483 1484 1483 1478 1479 1484 1488 1491 1494 1498 1500 1500 1501 1502 1503 1504 1505 1507 1509 1511 1512 1514 1516 1519 1521 1524 1527 1529 1531 1533 1534 1536 1537 1538 1539 1541
1484 1485 1486 1487 1484 1484 1481 1479 1481 1481 1480 1479 1477 1478 1489 1489 1496 1502 1504 1505 1505 1505 1505 1505 1506 1506 1507 1509 1510 1512 1513 1515 1518 1520 1523 1525 1528 1530 1531 1532 1533 1533 1534 1536
1481 1482 1482 1480 1480 1481 1480 1482 1481 1480 1477 1486 1478 1478 1493 1493 1499 1504 1507 1509 1508 1508 1508 1507 1507 1506 1506 1507 1508 1509 1510 1512 1514 1516 1519 1521 1524 1526 1526 1528 1529 1529 1530 1533
1480 1477 1478 1480 1480 1481 1481 1484 1486 1486 1485 1481 1476 1481 1499 1501 1503 1506 1509 1511 1511 1511 1510 1509 1508 1507 1507 1507 1507 1508 1509 1511 1512 1514 1516 1518 1520 1522 1523 1525 1526 1527 1528 1529
1480 1478 1474 1476 1477 1475 1477 1476 1479 1482 1480 1477 1479 1487 1502 1504 1508 1510 1511 1513 1514 1513 1513 1512 1511 1510 1509 1508 1508 1509 1509 1510 1511 1512 1514 1516 1517 1518 1520 1521 1523 1524 1525 1525
1479 1477 1473 1474 1475 1473 1474 1472 1464 1470 1469 1474 1481 1494 1504 1505 1508 1511 1513 1515 1516 1517 1516 1515 1514 1513 1512 1511 1511 1511 1511 1511 1511 1512 1513 1514 1516 1516 1517 1519 1520 1521 1523 1524
1479 1480 1472 1474 1474 1474 1469 1466 1471 1472 1478 1482 1487 1489 1496 1503 1507 1511 1514 1517 1519 1519 1519 1518 1517 1516 1516 1515 1514 1514 1513 1513 1513 1513 1513 1514 1515 1517 1517 1519 1519 1521 1522 1524
1481 1481 1476 1473 1473 1471 1472 1472 1469 1466 1465 1473 1486 1491 1490 1497 1504 1510 1516 1519 1521 1522 1522 1522 1521 1520 1519 1518 1517 1517 1516 1515 1515 1515 1516 1516 1517 1518 1519 1520 1521 1523 1524 1527
1481 1478 1476 1474 1473 1472 1470 1470 1470 1474 1474 1470 1471 1498 1495 1500 1506 1512 1517 1521 1523 1524 1524 1524 1524 1523 1522 1521 1520 1520 1519 1519 1519 1519 1519 1519 1520 1522 1523 1524 1525 1527 1529 1531
1481 1481 1483 1482 1480 1474 1473 1473 1471 1470 1470 1471 1475 1499 1500 1505 1511 1516 1519 1522 1524 1526 1526 1527 1526 1526 1525 1525 1525 1525 1525 1524 1525 1524 1524 1525 1526 1527 1528 1530 1531 1533 1534 1536
1485 1480 1482 1485 1482 1475 1476 1475 1473 1471 1469 1471 1474 1493 1503 1508 1513 1518 1522 1524 1526 1528 1529 1530 1530 1530 1530 1530 1531 1530 1530 1531 1531 1530 1531 1531 1533 1534 1535 1536 1537 1539 1540 1540
1483 1481 1481 1480 1479 1479 1480 1480 1478 1477 1476 1475 1481 1492 1503 1509 1515 1520 1524 1526 1529 1531 1532 1533 1534 1534 1534 1535 1535 1535 1536 1536 1536 1536 1536 1537 1539 1540 1541 1542 1542 1543 1543 1544
1483 1484 1483 1485 1482 1482 1486 1486 1485 1487 1485 1486 1491 1503 1509 1514 1518 1522 1526 1528 1531 1533 1535 1536 1537 1538 1538 1539 1539 1540 1540 1541 1541 1541 1542 1543 1544 1544 1545 1546 1546 1547 1547 1547
1482 1485 1485 1486 1485 1484 1494 1495 1493 1494 1495 1495 1498 1508 1513 1518 1521 1525 1527 1530 1533 1535 1537 1539 1540 1541 1542 1543 1543 1544 1545 1545 1545 1546 1547 1547 1548 1548 1549 1550 1550 1551 1551 1551
1485 1484 1482 1483 1488 1497 1502 1497 1497 1499 1502 1503 1506 1512 1517 1522 1525 1528 1530 1532 1535 1537 1539 1541 1542 1544 1545 1546 1547 1548 1549 1549 1550 1551 1551 1552 1552 1553 1553 1554 1554 1554 1555 1554
1487 1485 1483 1483 1486 1496 1500 1499 1499 1501 1507 1510 1513 1518 1522 1525 1528 1532 1534 1535 1537 1540 1542 1544 1545 1546 1548 1549 1550 1551 1552 1553 1554 1554 1555 1556 1556 1557 1557 1558 1558 1558 1557 1557
1488 1486 1483 1486 1491 1497 1501 1501 1502 1503 1510 1515 1517 1520 1523 1524 1527 1536 1537 1538 1540 1542 1544 1546 1548 1549 1550 1552 1553 1554 1555 1556 1557 1558 1559 1559 1560 1560 1560 1560 1560 1560 1559 1559
1486 1487 1487 1488 1491 1496 1502 1503 1504 1506 1511 1515 1518 1520 1523 1525 1529 1536 1539 1541 1543 1545 1547 1549 1550 1552 1553 1555 1556 1557 1558 1559 1560 1561 1561 1562 1562 1562 1562 1562 1562 1561 1561 1559
1487 1487 1490 1490 1493 1502 1506 1503 1504 1511 1513 1516 1519 1522 1525 1528 1533 1537 1540 1543 1546 1547 1550 1552 1553 1554 1556 1557 1559 1560 1561 1562 1562 1563 1564 1564 1564 1565 1564 1564 1563 1562 1561 1560
1488 1491 1489 1495 1502 1508 1509 1510 1512 1514 1516 1519 1522 1525 1528 1532 1536 1540 1543 1546 1548 1550 1552 1554 1556 1557 1558 1560 1561 1562 1563 1564 1565 1565 1566 1566 1566 1565 1565 1564 1564 1562 1561 1560
1494 1496 1495 1499 1505 1509 1512 1513 1515 1516 1519 1522 1525 1528 1531 1534 1538 1542 1545 1548 1550 1553 1555 1556 1558 1560 1561 1562 1563 1564 1565 1565 1566 1567 1567 1567 1566 1566 1565 1564 1564 1563 1561 1560
1491 1495 1495 1499 1507 1511 1514 1515 1517 1519 1522 1525 1528 1531 1534 1537 1541 1544 1547 1550 1553 1555 1557 1559 1560 1562 1563 1564 1565 1566 1566 1567 1567 1567 1567 1567 1567 1566 1565 1564 1563 1562 1561 1559
1491 1493 1493 1495 1503 1506 1513 1517 1519 1522 1524 1527 1530 1534 1537 1540 1543 1547 1550 1552 1555 1557 1559 1561 1562 1564 1565 1566 1567 1567 1567 1567 1568 1567 1567 1567 1566 1566 1565 1564 1562 1561 1560 1558